Tracking 29747 objects as of 10-Oct-2024
HD Live streaming from Space Station
objects crossing your sky now

COSMOS 839 DEB

Track COSMOS 839 DEB now!
10-day predictions


NORAD ID: 10621
Int'l Code: 1976-067AV
Perigee: 1,027.9 km
Apogee: 2,075.7 km
Inclination: 66.0 °
Period: 117.0 minutes
Semi major axis: 7922 km
RCS: 0.3133 m2 (medium)
Launch date: July 8, 1976
Source: Commonwealth of Independent States (former USSR) (CIS)
Launch site: PLESETSK MISSILE AND SPACE COMPLEX (PKMTR)

Note: This is SATELLITE DEBRIS
Your satellite tracking list
Your tracking list is empty




NASA's NSSDC Master Catalog

Two Line Element Set (TLE):
1 10621U 76067AV  24283.83492319  .00000050  00000-0  41573-3 0  9992
2 10621  66.0283  46.2807 0661201 111.7542  12.8487 12.31074839168172
Source of the keplerian elements: AFSPC